CZ-4 DEB, 28075

Orbit data source: Space-Track

CZ-4 DEB, 28075 is space debris in SSO originally from a launch on Thu, 14 Oct 1999 UTC launched from the Taiyaun Space Center, China (TSC). Debris objects in space refer to the collection of defunct objects orbiting the Earth. Examples of debris include non-operational satellites, rocket bodies, and fragments generated from explosions, collisions, or faulty payload assembly.

Loading next visibility...
Identifier
28075, 1999-057NF
Orbit
SSO
Country
Flag of CNCN / PRC
Related business
Manufacturer
Unknown
Mission
Spacecraft
Bus & Motor
Unknown
Mass
Unknown
Launch date (UTC)
1999-10-14 (26 years ago)
Launch vehicle
Unknown
Launch site
Taiyaun Space Center, China (TSC)
Object type
Payload
Rocket body
Debris
Shape & HBR
Unknown shape, 0.1 m
Radar Cross Section
Small (<0.1 m²)

Expand to show TLE details & history
Last TLE update: 4 days ago

TLE from 4 days ago
0 CZ-4 DEB
1 28075U 99057NF  25299.61536230  .00001741  00000-0  50710-3 0  9994
2 28075  98.6525 355.8863 0097215 167.8935 192.4624 14.42773113700503
Epoch: 2025-10-26T14:46Z
TLE epoch observation values (Epoch: 2025-10-26T14:46:07.302Z)
Latitude
0.00001°
Longitude
99.12686°
Altitude
820.001 km
Speed
7.408 km/s
True Right ascension
23h 43m 32s
True Declination
0° 00' 00"
Sunlit
Object was in full shadow at epoch
Visualization orbit readout
Latitude
Unknown
Longitude
Unknown
Altitude
Unknown
Speed
Unknown
Apparent Right ascension
Unknown
Apparent Declination
Unknown
Sunlit
N/A
Visualization observer readout
Local Sidereal Time
12:48:32
Azimuth
Unknown
Elevation
Unknown
Doppler factor
Unknown
Orbital elements
Apogee altitude
815.738 km
Perigee altitude
677.214 km
Semi-major axis
7,124.613 km
Eccentricity
0.00972
Inclination
98.6525°
RAAN
355.8863°
Arg. of periapsis
167.8935°
True anomaly
192.22482°
Mean anomaly
192.4624°
Eccentric anomaly
192.34333°
Mean motion
3.60912 °/min
Orbital period
99.75 mins
BSTAR
0.0005071
Loading maneuver chart data...
Computing Atmospheric mass density...
Loading historical data...
Loading historical data...
Loading historical data...
Loading historical data...
Loading historical data...
Loading historical data...
Loading historical data...

Documentation

Showing up to 5 results
|